Abakan, Russia

2:24 PM +07 on December 16, 2019 (GMT +0700)
Abakan

Weather History for UNAA - November, 2019

Change the Weather History Date:

Friday, November 22, 2019

  Actual Average Record
Temperature  
Mean Temperature 2 °F -  
Max Temperature 6 °F - - ()
Min Temperature -2 °F - - ()
Degree Days  
Heating Degree Days 63    
Moisture  
Dew Point -7 °F    
Average Humidity 63    
Maximum Humidity 67    
Minimum Humidity 56    
Precipitation  
Precipitation 0.00 in - - ()
Sea Level Pressure  
Sea Level Pressure 30.40 in    
Wind  
Wind Speed 10 mph ()    
Max Wind Speed 18 mph    
Max Gust Speed -    
Visibility 6.0 miles    
Events Snow    
T = Trace of Precipitation, MM = Missing Value Source: Averaged Metar Reports

Daily Weather History Graph

Daily Weather History Graph

Search for Another Location

Airport or City:

Astronomy

Nov. 22, 2019 Rise Set
Actual Time 8:32 AM +07 4:47 PM +07
Civil Twilight 7:52 AM +07 5:28 PM +07
Nautical Twilight 7:08 AM +07 6:11 PM +07
Astronomical Twilight 6:26 AM +07 6:53 PM +07
Moon 2:02 AM +07 (11/22) 3:26 PM +07 (11/22)
Length of Visible Light 9h 35m
Length of Day
8h 15m
Waning Crescent, 24% of the Moon is Illuminated
Nov 22
Waning Crescent
Nov 26
New
Dec 4
First Quarter
Dec 12
Full
Dec 19
Last Quarter

Hourly Weather History & Observations

Time (+07) Temp. Windchill Dew Point Humidity Pressure Visibility Wind Dir Wind Speed Gust Speed Precip Events Conditions
12:30 AM -2.2 °F -17.7 °F -13.0 °F 60% 30.39 in - SSW 8.9 mph - N/A   Clear
1:30 AM -2.2 °F -12.2 °F -13.0 °F 60% 30.39 in - South 4.5 mph - N/A   Clear
2:00 AM -2.2 °F -12.2 °F -13.0 °F 60% 30.39 in - South 4.5 mph - N/A   Clear
2:30 AM -2.2 °F -19.6 °F -13.0 °F 60% 30.39 in - SSW 11.2 mph - N/A   Clear
3:30 AM -2.2 °F -19.6 °F -13.0 °F 60% 30.39 in - SSW 11.2 mph - N/A   Clear
4:00 AM -2.2 °F -17.7 °F -11.2 °F 66% 30.36 in - SW 8.9 mph - N/A   Clear
4:30 AM -2.2 °F -15.4 °F -11.2 °F 66% 30.36 in - SSW 6.7 mph - N/A   Clear
5:00 AM -0.4 °F -15.5 °F -9.4 °F 66% 30.36 in 6.2 mi SSW 8.9 mph - N/A   Scattered Clouds
5:30 AM -0.4 °F -13.2 °F -9.4 °F 66% 30.36 in 6.2 mi SW 6.7 mph - N/A Snow Light Snow Showers
7:00 AM 1.4 °F -13.3 °F -7.6 °F 66% 30.36 in 5.6 mi SSW 8.9 mph - N/A Snow Light Snow Showers
7:30 AM 1.4 °F -15.1 °F -7.6 °F 66% 30.36 in 6.2 mi SSW 11.2 mph - N/A Snow Light Snow Showers
8:00 AM 1.4 °F -15.1 °F -7.6 °F 66% 30.36 in 6.2 mi SSW 11.2 mph - N/A   Scattered Clouds
8:30 AM 1.4 °F -15.1 °F -7.6 °F 66% 30.36 in 6.2 mi SSW 11.2 mph - N/A   Scattered Clouds
9:00 AM 1.4 °F -16.6 °F -7.6 °F 66% 30.36 in 6.2 mi SW 13.4 mph - N/A Snow Low Drifting Snow
9:30 AM 1.4 °F -16.6 °F -7.6 °F 66% 30.36 in 6.2 mi SSW 13.4 mph - N/A Snow Light Snow Showers
10:00 AM 3.2 °F -14.4 °F -7.6 °F 61% 30.36 in 6.2 mi SW 13.4 mph - N/A   Scattered Clouds
10:30 AM 3.2 °F -12.9 °F -9.4 °F 56% 30.36 in 6.2 mi SW 11.2 mph - N/A   Scattered Clouds
11:00 AM 3.2 °F -15.7 °F -9.4 °F 56% 30.39 in 6.2 mi SW 15.7 mph - N/A Snow Light Snow Showers
11:30 AM 3.2 °F -12.9 °F -7.6 °F 61% 30.39 in 6.2 mi SW 11.2 mph - N/A   Scattered Clouds
12:00 PM 3.2 °F -14.4 °F -7.6 °F 61% 30.39 in 6.2 mi SW 13.4 mph - N/A Snow Low Drifting Snow
12:30 PM 3.2 °F -15.7 °F -7.6 °F 61% 30.39 in 6.2 mi SSW 15.7 mph - N/A Snow Low Drifting Snow
1:30 PM 5.0 °F -12.1 °F -5.8 °F 61% 30.39 in 5.6 mi SSW 13.4 mph - N/A Snow Light Snow Showers
2:00 PM 5.0 °F -12.1 °F -4.0 °F 66% 30.39 in 5.0 mi SW 13.4 mph - N/A Snow Light Snow Showers
2:30 PM 5.0 °F -12.1 °F -5.8 °F 61% 30.39 in 6.2 mi SSW 13.4 mph - N/A Snow Low Drifting Snow
3:00 PM 5.0 °F -12.1 °F -5.8 °F 61% 30.39 in 6.2 mi SW 13.4 mph - N/A Snow Low Drifting Snow
3:30 PM 5.0 °F -10.6 °F -4.0 °F 66% 30.42 in 5.6 mi SW 11.2 mph - N/A   Scattered Clouds
4:00 PM 5.0 °F -12.1 °F -4.0 °F 66% 30.42 in 6.2 mi SSW 13.4 mph - N/A   Scattered Clouds
5:00 PM 5.0 °F -8.9 °F -5.8 °F 61% 30.42 in 6.2 mi SSW 8.9 mph - N/A   Scattered Clouds
6:00 PM 5.0 °F -8.9 °F -5.8 °F 61% 30.45 in - SW 8.9 mph - N/A   Clear
8:30 PM 6.8 °F -9.8 °F -4.0 °F 61% 30.48 in 6.2 mi SSW 13.4 mph - N/A   Scattered Clouds
9:00 PM 6.8 °F -11.0 °F -2.2 °F 67% 30.48 in - SW 15.7 mph - N/A   Clear
9:30 PM 6.8 °F -12.1 °F -2.2 °F 67% 30.48 in 6.2 mi SW 17.9 mph - N/A Snow Low Drifting Snow
10:00 PM 6.8 °F -11.0 °F -4.0 °F 61% 30.51 in 6.2 mi SSW 15.7 mph - N/A Snow Low Drifting Snow
10:30 PM 6.8 °F -12.1 °F -2.2 °F 67% 30.51 in 6.2 mi SW 17.9 mph - N/A Snow Low Drifting Snow
11:00 PM 6.8 °F -12.1 °F -2.2 °F 67% 30.51 in 5.0 mi SSW 17.9 mph - N/A Snow Low Drifting Snow